Time,TemperatureF,DewpointF,PressureIn,WindDirection,WindDirectionDegrees,WindSpeedMPH,WindSpeedGustMPH,Humidity,HourlyPrecipIn,Conditions,Clouds,dailyrainin,SolarRadiationWatts/m^2,SoftwareType,DateUTC
2013-03-11 00:00:00,28.5,26.5,29.88,NE,43,1.1,1.1,92,0.00,RA,,0.00,0.0,WeatherDisplay:10.37,2013-03-11 05:00:00,
2013-03-11 00:05:00,28.5,26.5,29.88,ENE,61,8.1,8.1,92,0.00,RA,,0.00,0.0,WeatherDisplay:10.37,2013-03-11 05:05:00,
2013-03-11 00:10:00,28.4,26.6,29.88,NNE,19,3.5,3.5,93,0.00,OVC,,0.00,0.0,WeatherDisplay:10.37,2013-03-11 05:10:00,
2013-03-11 00:15:00,28.3,26.5,29.88,ENE,73,4.6,4.6,93,0.00,OVC,,0.00,0.0,WeatherDisplay:10.37,2013-03-11 05:15:00,
2013-03-11 00:20:00,28.3,26.3,29.88,North,355,4.6,4.6,92,0.00,OVC,,0.00,0.0,WeatherDisplay:10.37,2013-03-11 05:20:00,
2013-03-11 00:25:00,28.2,26.4,29.88,ENE,76,2.3,2.3,93,0.00,OVC,,0.00,0.0,WeatherDisplay:10.37,2013-03-11 05:25:00,
2013-03-11 00:30:00,28.1,26.3,29.88,NE,44,2.3,0.0,93,0.00,OVC,,0.00,0.0,WeatherDisplay:10.37,2013-03-11 05:30:00,
2013-03-11 00:35:00,28.1,26.3,29.88,North,5,2.3,2.3,93,0.00,OVC,,0.00,0.0,WeatherDisplay:10.37,2013-03-11 05:35:00,
2013-03-11 00:40:00,28.0,26.2,29.88,North,5,0.0,0.4,93,0.00,OVC,,0.00,0.0,WeatherDisplay:10.37,2013-03-11 05:40:00,
2013-03-11 00:45:00,28.0,26.2,29.88,North,5,1.1,1.1,93,0.00,OVC,,0.00,0.0,WeatherDisplay:10.37,2013-03-11 05:45:00,
2013-03-11 00:50:00,27.9,26.1,29.88,NNW,346,1.1,1.1,93,0.00,OVC,,0.00,0.0,WeatherDisplay:10.37,2013-03-11 05:50:00,
2013-03-11 00:55:00,27.9,26.1,29.88,East,80,3.0,3.0,93,0.00,OVC,,0.00,0.0,WeatherDisplay:10.37,2013-03-11 05:55:00,
2013-03-11 01:00:00,27.9,26.1,29.87,ENE,67,1.1,0.0,93,0.00,OVC,,0.00,0.0,WeatherDisplay:10.37,2013-03-11 06:00:00,
2013-03-11 01:05:00,27.8,26.0,29.87,NE,44,2.3,2.3,93,0.00,OVC,,0.00,0.0,WeatherDisplay:10.37,2013-03-11 06:05:00,
2013-03-11 01:10:00,27.8,26.0,29.86,NNE,32,3.5,3.5,93,0.00,OVC,,0.00,0.0,WeatherDisplay:10.37,2013-03-11 06:10:00,
2013-03-11 01:15:00,27.8,26.0,29.86,NNE,16,2.3,2.3,93,0.00,OVC,,0.00,0.0,WeatherDisplay:10.37,2013-03-11 06:15:00,
2013-03-11 01:20:00,27.8,26.0,29.86,NNE,17,0.0,0.0,93,0.00,OVC,,0.00,0.0,WeatherDisplay:10.37,2013-03-11 06:20:00,
2013-03-11 01:25:00,27.8,26.0,29.86,NNE,30,2.3,2.3,93,0.00,OVC,,0.00,0.0,WeatherDisplay:10.37,2013-03-11 06:25:00,
2013-03-11 01:30:00,27.8,26.0,29.86,NNE,25,0.0,0.0,93,0.00,OVC,,0.00,0.0,WeatherDisplay:10.37,2013-03-11 06:30:00,
2013-03-11 01:36:00,27.8,26.0,29.85,North,5,2.3,2.3,93,0.00,OVC,,0.00,0.0,WeatherDisplay:10.37,2013-03-11 06:36:00,
2013-03-11 01:41:00,27.8,26.0,29.85,NNE,15,2.3,2.3,93,0.00,OVC,,0.00,0.0,WeatherDisplay:10.37,2013-03-11 06:41:00,
2013-03-11 01:46:00,27.8,26.0,29.85,ENE,65,3.5,3.5,93,0.00,OVC,,0.00,0.0,WeatherDisplay:10.37,2013-03-11 06:46:00,
2013-03-11 01:51:00,27.9,26.1,29.85,NE,36,1.1,1.1,93,0.00,OVC,,0.00,0.0,WeatherDisplay:10.37,2013-03-11 06:51:00,
2013-03-11 01:56:00,27.9,26.1,29.85,NE,39,2.3,2.3,93,0.00,OVC,,0.00,0.0,WeatherDisplay:10.37,2013-03-11 06:56:00,
2013-03-11 02:01:00,27.9,26.1,29.85,NE,37,2.3,2.3,93,0.00,OVC,,0.00,0.0,WeatherDisplay:10.37,2013-03-11 07:01:00,
2013-03-11 02:06:00,27.9,26.1,29.84,NNE,17,2.3,2.3,93,0.00,OVC,,0.00,0.0,WeatherDisplay:10.37,2013-03-11 07:06:00,
2013-03-11 02:11:00,27.9,26.1,29.84,ENE,66,2.3,2.3,93,0.00,OVC,,0.00,0.0,WeatherDisplay:10.37,2013-03-11 07:11:00,
2013-03-11 02:16:00,27.9,26.1,29.84,NNE,13,2.3,2.3,93,0.00,OVC,,0.00,0.0,WeatherDisplay:10.37,2013-03-11 07:16:00,
2013-03-11 02:21:00,27.9,26.1,29.84,NE,34,1.1,1.1,93,0.00,OVC,,0.00,0.0,WeatherDisplay:10.37,2013-03-11 07:21:00,
2013-03-11 02:26:00,27.9,25.9,29.84,NNE,15,3.5,3.5,92,0.00,OVC,,0.00,0.0,WeatherDisplay:10.37,2013-03-11 07:26:00,
2013-03-11 02:31:00,27.9,25.9,29.83,NE,37,3.5,3.5,92,0.00,OVC,,0.00,0.0,WeatherDisplay:10.37,2013-03-11 07:31:00,
2013-03-11 02:36:00,28.0,26.0,29.83,NE,49,2.3,2.3,92,0.00,OVC,,0.00,0.0,WeatherDisplay:10.37,2013-03-11 07:36:00,
2013-03-11 02:41:00,27.9,25.9,29.83,SE,136,3.5,3.5,92,0.00,OVC,,0.00,0.0,WeatherDisplay:10.37,2013-03-11 07:41:00,
2013-03-11 02:46:00,27.9,25.9,29.83,NNE,15,2.3,0.0,92,0.00,OVC,,0.00,0.0,WeatherDisplay:10.37,2013-03-11 07:46:00,
2013-03-11 02:51:00,27.9,25.9,29.83,NNE,25,1.1,1.1,92,0.00,OVC,,0.00,0.0,WeatherDisplay:10.37,2013-03-11 07:51:00,
2013-03-11 02:56:00,27.9,25.9,29.82,NNE,12,2.3,0.0,92,0.00,OVC,,0.00,0.0,WeatherDisplay:10.37,2013-03-11 07:56:00,
2013-03-11 03:01:00,27.9,25.9,29.82,NNE,16,2.3,2.3,92,0.00,OVC,,0.00,0.0,WeatherDisplay:10.37,2013-03-11 08:01:00,
2013-03-11 03:06:00,27.9,25.9,29.82,NE,46,2.3,2.3,92,0.00,OVC,,0.00,0.0,WeatherDisplay:10.37,2013-03-11 08:06:00,
2013-03-11 03:12:00,27.9,25.9,29.82,North,9,3.5,3.5,92,0.00,OVC,,0.00,0.0,WeatherDisplay:10.37,2013-03-11 08:12:00,
2013-03-11 03:17:00,27.9,25.9,29.81,ENE,63,2.3,2.3,92,0.00,OVC,,0.00,0.0,WeatherDisplay:10.37,2013-03-11 08:17:00,
2013-03-11 03:22:00,27.9,25.9,29.81,ESE,117,5.0,5.0,92,0.00,OVC,,0.00,0.0,WeatherDisplay:10.37,2013-03-11 08:22:00,
2013-03-11 03:27:00,28.0,26.0,29.81,NE,53,3.5,3.5,92,0.00,OVC,,0.00,0.0,WeatherDisplay:10.37,2013-03-11 08:27:00,
2013-03-11 03:32:00,28.0,25.7,29.80,NNE,22,3.5,3.5,91,0.00,OVC,,0.00,0.0,WeatherDisplay:10.37,2013-03-11 08:32:00,
2013-03-11 03:37:00,28.0,26.0,29.80,ENE,74,2.3,2.3,92,0.00,OVC,,0.00,0.0,WeatherDisplay:10.37,2013-03-11 08:37:00,
2013-03-11 03:42:00,28.0,25.7,29.80,ESE,103,2.3,2.3,91,0.00,OVC,,0.00,0.0,WeatherDisplay:10.37,2013-03-11 08:42:00,
2013-03-11 03:47:00,28.1,25.8,29.80,NE,38,3.5,3.5,91,0.00,OVC,,0.00,0.0,WeatherDisplay:10.37,2013-03-11 08:47:00,
2013-03-11 03:52:00,28.1,25.8,29.80,East,88,5.0,5.0,91,0.00,OVC,,0.00,0.0,WeatherDisplay:10.37,2013-03-11 08:52:00,
2013-03-11 03:57:00,28.1,25.8,29.80,NE,40,3.5,3.5,91,0.00,OVC,,0.00,0.0,WeatherDisplay:10.37,2013-03-11 08:57:00,
2013-03-11 04:02:00,28.2,25.9,29.80,ENE,74,3.0,3.0,91,0.00,OVC,,0.00,0.0,WeatherDisplay:10.37,2013-03-11 09:02:00,
2013-03-11 04:07:00,28.2,25.9,29.80,NNE,26,4.6,4.6,91,0.00,OVC,,0.00,0.0,WeatherDisplay:10.37,2013-03-11 09:07:00,
2013-03-11 04:12:00,28.2,25.9,29.80,NNE,13,3.5,3.5,91,0.00,OVC,,0.00,0.0,WeatherDisplay:10.37,2013-03-11 09:12:00,
2013-03-11 04:17:00,28.2,25.9,29.80,NE,35,2.3,2.3,91,0.00,OVC,,0.00,0.0,WeatherDisplay:10.37,2013-03-11 09:17:00,
2013-03-11 04:22:00,28.2,25.9,29.80,NE,44,1.1,1.1,91,0.00,OVC,,0.00,0.0,WeatherDisplay:10.37,2013-03-11 09:22:00,
2013-03-11 04:27:00,28.1,25.8,29.80,North,11,2.3,2.3,91,0.00,OVC,,0.00,0.0,WeatherDisplay:10.37,2013-03-11 09:27:00,
2013-03-11 04:32:00,28.1,25.8,29.80,North,355,4.6,4.6,91,0.00,OVC,,0.00,0.0,WeatherDisplay:10.37,2013-03-11 09:32:00,
2013-03-11 04:38:00,28.1,25.8,29.80,NNE,17,2.3,2.3,91,0.00,OVC,,0.00,0.0,WeatherDisplay:10.37,2013-03-11 09:38:00,
2013-03-11 04:43:00,28.1,25.8,29.80,NE,42,0.0,0.0,91,0.00,OVC,,0.00,0.0,WeatherDisplay:10.37,2013-03-11 09:43:00,
2013-03-11 04:48:00,28.1,25.8,29.80,ENE,74,4.6,4.6,91,0.00,OVC,,0.00,0.0,WeatherDisplay:10.37,2013-03-11 09:48:00,
2013-03-11 04:53:00,28.0,25.7,29.80,NNE,22,3.0,3.0,91,0.00,OVC,,0.00,0.0,WeatherDisplay:10.37,2013-03-11 09:53:00,
2013-03-11 04:58:00,28.0,25.7,29.80,North,5,3.5,3.5,91,0.00,OVC,,0.00,0.0,WeatherDisplay:10.37,2013-03-11 09:58:00,
2013-03-11 05:03:00,28.0,25.7,29.79,North,5,1.1,0.0,91,0.00,OVC,,0.00,0.0,WeatherDisplay:10.37,2013-03-11 10:03:00,
2013-03-11 05:08:00,28.0,25.7,29.80,NE,42,2.3,2.3,91,0.00,OVC,,0.00,0.0,WeatherDisplay:10.37,2013-03-11 10:08:00,
2013-03-11 05:13:00,27.9,25.6,29.79,ENE,59,3.5,3.5,91,0.00,OVC,,0.00,0.0,WeatherDisplay:10.37,2013-03-11 10:13:00,
2013-03-11 05:18:00,28.0,25.7,29.79,NE,36,3.5,3.5,91,0.00,OVC,,0.00,0.0,WeatherDisplay:10.37,2013-03-11 10:18:00,
2013-03-11 05:23:00,28.0,25.7,29.79,NE,36,2.3,2.3,91,0.00,OVC,,0.00,0.0,WeatherDisplay:10.37,2013-03-11 10:23:00,
2013-03-11 05:28:00,28.0,25.7,29.79,NNE,22,3.5,3.5,91,0.00,OVC,,0.01,0.0,WeatherDisplay:10.37,2013-03-11 10:28:00,
2013-03-11 05:33:00,27.9,25.9,29.79,NNE,25,3.0,3.0,92,0.01,RA,,0.01,0.0,WeatherDisplay:10.37,2013-03-11 10:33:00,
2013-03-11 05:38:00,27.9,25.9,29.79,NE,42,9.2,9.2,92,0.01,RA,,0.01,0.0,WeatherDisplay:10.37,2013-03-11 10:38:00,
2013-03-11 05:43:00,27.9,25.9,29.80,ENE,59,5.8,5.8,92,0.01,OVC,,0.01,0.0,WeatherDisplay:10.37,2013-03-11 10:43:00,
2013-03-11 05:48:00,27.9,25.9,29.80,NE,54,6.9,6.9,92,0.01,OVC,,0.01,0.0,WeatherDisplay:10.37,2013-03-11 10:48:00,
2013-03-11 05:53:00,27.8,25.8,29.80,North,11,2.3,2.3,92,0.01,OVC,,0.01,0.0,WeatherDisplay:10.37,2013-03-11 10:53:00,
2013-03-11 05:58:00,27.8,25.8,29.80,NW,305,3.5,3.5,92,0.01,OVC,,0.01,0.0,WeatherDisplay:10.37,2013-03-11 10:58:00,
2013-03-11 06:03:00,27.7,25.7,29.79,North,11,4.6,4.6,92,0.01,OVC,,0.01,0.0,WeatherDisplay:10.37,2013-03-11 11:03:00,
2013-03-11 06:08:00,27.7,25.7,29.79,ENE,63,6.9,6.9,92,0.01,OVC,,0.01,0.0,WeatherDisplay:10.37,2013-03-11 11:08:00,
2013-03-11 06:13:00,27.6,25.6,29.79,ENE,57,14.0,14.0,92,0.01,OVC,,0.01,0.0,WeatherDisplay:10.37,2013-03-11 11:13:00,
2013-03-11 06:18:00,27.6,25.6,29.79,ESE,114,5.0,5.0,92,0.01,OVC,,0.01,0.0,WeatherDisplay:10.37,2013-03-11 11:18:00,
2013-03-11 06:23:00,27.6,25.6,29.79,NNE,29,3.5,3.5,92,0.01,OVC,,0.01,0.0,WeatherDisplay:10.37,2013-03-11 11:23:00,
2013-03-11 06:28:00,27.6,25.6,29.79,NNE,25,2.3,2.3,92,0.01,OVC,,0.01,0.0,WeatherDisplay:10.37,2013-03-11 11:28:00,
2013-03-11 06:33:00,27.6,25.6,29.79,NE,48,4.6,4.6,92,0.00,OVC,,0.01,0.0,WeatherDisplay:10.37,2013-03-11 11:33:00,
2013-03-11 06:38:00,27.6,25.6,29.79,ENE,76,3.5,3.5,92,0.00,OVC,,0.01,0.0,WeatherDisplay:10.37,2013-03-11 11:38:00,
2013-03-11 06:43:00,27.6,25.6,29.79,NNE,12,8.1,8.1,92,0.00,OVC,,0.01,0.0,WeatherDisplay:10.37,2013-03-11 11:43:00,
2013-03-11 06:48:00,27.5,25.5,29.79,NW,307,6.9,6.9,92,0.00,OVC,,0.01,0.0,WeatherDisplay:10.37,2013-03-11 11:48:00,
2013-03-11 06:54:00,27.5,25.5,29.79,SW,224,6.9,6.9,92,0.00,OVC,,0.01,0.0,WeatherDisplay:10.37,2013-03-11 11:54:00,
2013-03-11 06:59:00,27.5,25.5,29.79,NE,46,4.6,4.6,92,0.00,OVC,,0.01,0.0,WeatherDisplay:10.37,2013-03-11 11:59:00,
2013-03-11 07:04:00,27.5,25.5,29.79,ENE,57,6.9,6.9,92,0.00,OVC,,0.01,0.0,WeatherDisplay:10.37,2013-03-11 12:04:00,
2013-03-11 07:09:00,27.5,25.5,29.79,East,90,2.3,2.3,92,0.00,OVC,,0.01,0.0,WeatherDisplay:10.37,2013-03-11 12:09:00,
2013-03-11 07:14:00,27.5,25.5,29.79,NNE,15,4.6,4.6,92,0.00,OVC,,0.01,0.0,WeatherDisplay:10.37,2013-03-11 12:14:00,
2013-03-11 07:19:00,27.5,25.5,29.79,ENE,67,3.5,3.5,92,0.01,RA,,0.02,0.0,WeatherDisplay:10.37,2013-03-11 12:19:00,
2013-03-11 07:24:00,27.5,25.2,29.79,ENE,68,8.1,8.1,91,0.02,RA,,0.03,0.0,WeatherDisplay:10.37,2013-03-11 12:24:00,
2013-03-11 07:29:00,27.5,25.5,29.79,ENE,66,4.6,4.6,92,0.02,RA,,0.03,0.0,WeatherDisplay:10.37,2013-03-11 12:29:00,
2013-03-11 07:34:00,27.5,25.2,29.79,ESE,106,11.5,11.5,91,0.03,RA,,0.04,0.0,WeatherDisplay:10.37,2013-03-11 12:34:00,
2013-03-11 07:39:00,27.5,25.2,29.79,NE,38,2.0,2.0,91,0.04,RA,,0.05,0.0,WeatherDisplay:10.37,2013-03-11 12:39:00,
2013-03-11 07:44:00,27.5,25.2,29.79,North,10,5.8,5.8,91,0.04,RA,,0.05,0.0,WeatherDisplay:10.37,2013-03-11 12:44:00,
2013-03-11 07:49:00,27.5,25.2,29.79,NE,46,3.5,3.5,91,0.05,RA,,0.06,0.0,WeatherDisplay:10.37,2013-03-11 12:49:00,
2013-03-11 07:54:00,27.5,25.2,29.78,NE,50,5.8,5.8,91,0.05,RA,,0.06,0.0,WeatherDisplay:10.37,2013-03-11 12:54:00,
2013-03-11 07:59:00,27.5,25.2,29.78,ENE,69,3.5,3.5,91,0.05,OVC,,0.06,0.0,WeatherDisplay:10.37,2013-03-11 12:59:00,
2013-03-11 08:04:00,27.5,25.0,29.78,NE,49,5.8,5.8,90,0.06,RA,,0.07,0.0,WeatherDisplay:10.37,2013-03-11 13:04:00,
2013-03-11 08:09:00,27.5,25.2,29.78,NNE,29,3.5,3.5,91,0.06,RA,,0.07,5.0,WeatherDisplay:10.37,2013-03-11 13:09:00,
2013-03-11 08:14:00,27.6,25.3,29.78,West,263,2.3,2.3,91,0.06,OVC,,0.07,0.0,WeatherDisplay:10.37,2013-03-11 13:14:00,
2013-03-11 08:19:00,27.6,25.3,29.78,ENE,57,4.6,4.6,91,0.05,OVC,,0.07,0.0,WeatherDisplay:10.37,2013-03-11 13:19:00,
2013-03-11 08:24:00,27.6,25.3,29.78,ENE,74,4.6,4.6,91,0.04,OVC,,0.07,0.0,WeatherDisplay:10.37,2013-03-11 13:24:00,
2013-03-11 08:29:00,27.6,25.3,29.78,NNE,23,3.5,3.5,91,0.04,OVC,,0.07,0.0,WeatherDisplay:10.37,2013-03-11 13:29:00,
2013-03-11 08:34:00,27.6,25.3,29.78,ENE,67,2.3,2.3,91,0.03,OVC,,0.07,5.0,WeatherDisplay:10.37,2013-03-11 13:34:00,
2013-03-11 08:39:00,27.6,25.1,29.78,East,98,6.9,6.9,90,0.02,OVC,,0.07,5.0,WeatherDisplay:10.37,2013-03-11 13:39:00,
2013-03-11 08:44:00,27.5,25.0,29.77,ENE,63,2.3,2.3,90,0.03,RA,,0.08,5.0,WeatherDisplay:10.37,2013-03-11 13:44:00,
2013-03-11 08:49:00,27.6,25.1,29.77,ENE,76,2.3,2.3,90,0.02,RA,,0.08,7.0,WeatherDisplay:10.37,2013-03-11 13:49:00,
2013-03-11 08:54:00,27.6,25.1,29.77,NNE,30,6.9,6.9,90,0.02,OVC,,0.08,9.0,WeatherDisplay:10.37,2013-03-11 13:54:00,
2013-03-11 08:59:00,27.6,25.1,29.77,ENE,59,2.3,2.3,90,0.02,OVC,,0.08,11.0,WeatherDisplay:10.37,2013-03-11 13:59:00,
2013-03-11 09:04:00,27.5,25.0,29.77,ESE,107,7.0,7.0,90,0.01,OVC,,0.08,11.0,WeatherDisplay:10.37,2013-03-11 14:04:00,
2013-03-11 09:09:00,27.6,25.1,29.77,North,360,2.3,2.3,90,0.01,OVC,,0.08,12.0,WeatherDisplay:10.37,2013-03-11 14:09:00,
2013-03-11 09:14:00,27.6,25.1,29.77,NNE,16,3.5,3.5,90,0.01,OVC,,0.08,16.0,WeatherDisplay:10.37,2013-03-11 14:14:00,
2013-03-11 09:19:00,27.6,24.8,29.77,NNE,19,3.5,3.5,89,0.01,OVC,,0.08,12.0,WeatherDisplay:10.37,2013-03-11 14:19:00,
2013-03-11 09:24:00,27.6,25.1,29.77,North,5,3.5,3.5,90,0.01,OVC,,0.08,12.0,WeatherDisplay:10.37,2013-03-11 14:24:00,
2013-03-11 09:29:00,27.6,25.1,29.77,NNE,24,2.3,2.3,90,0.01,OVC,,0.08,12.0,WeatherDisplay:10.37,2013-03-11 14:29:00,
2013-03-11 09:34:00,27.6,24.8,29.77,NE,46,3.5,3.5,89,0.01,OVC,,0.08,11.0,WeatherDisplay:10.37,2013-03-11 14:34:00,
2013-03-11 09:39:00,27.6,24.8,29.77,ENE,67,4.6,4.6,89,0.02,RA,,0.09,14.0,WeatherDisplay:10.37,2013-03-11 14:39:00,
2013-03-11 09:44:00,27.6,24.8,29.77,NE,51,8.1,8.1,89,0.01,RA,,0.09,18.0,WeatherDisplay:10.37,2013-03-11 14:44:00,
2013-03-11 09:49:00,27.6,24.8,29.77,North,11,3.5,3.5,89,0.01,OVC,,0.09,18.0,WeatherDisplay:10.37,2013-03-11 14:49:00,
2013-03-11 09:54:00,27.6,24.8,29.77,NNE,17,3.5,3.5,89,0.01,OVC,,0.09,16.0,WeatherDisplay:10.37,2013-03-11 14:54:00,
2013-03-11 09:59:00,27.6,24.8,29.77,NE,40,2.3,2.3,89,0.01,OVC,,0.09,19.0,WeatherDisplay:10.37,2013-03-11 14:59:00,
2013-03-11 10:04:00,27.6,24.8,29.77,NNE,22,5.8,5.8,89,0.01,-SN,,0.09,23.0,WeatherDisplay:10.37,2013-03-11 15:04:00,
2013-03-11 10:09:00,27.5,24.4,29.77,NNW,332,3.5,3.5,88,0.01,-SN,,0.09,23.0,WeatherDisplay:10.37,2013-03-11 15:09:00,
2013-03-11 10:14:00,27.6,24.8,29.77,NE,55,2.3,2.3,89,0.01,-SN,,0.09,25.0,WeatherDisplay:10.37,2013-03-11 15:14:00,
2013-03-11 10:19:00,27.6,24.5,29.77,NE,49,2.3,2.3,88,0.01,-SN,,0.09,23.0,WeatherDisplay:10.37,2013-03-11 15:19:00,
2013-03-11 10:24:00,27.5,24.4,29.77,NE,36,3.5,3.5,88,0.01,-SN,,0.09,19.0,WeatherDisplay:10.37,2013-03-11 15:24:00,
2013-03-11 10:29:00,27.6,24.8,29.77,NNE,32,2.3,2.3,89,0.01,-SN,,0.09,25.0,WeatherDisplay:10.37,2013-03-11 15:29:00,
2013-03-11 10:34:00,27.6,24.8,29.77,NE,38,2.3,2.3,89,0.01,-SN,,0.09,28.0,WeatherDisplay:10.37,2013-03-11 15:34:00,
2013-03-11 10:39:00,27.6,24.5,29.77,NNE,21,3.5,3.5,88,0.00,-SN,,0.09,23.0,WeatherDisplay:10.37,2013-03-11 15:39:00,
2013-03-11 10:44:00,27.6,24.8,29.77,NE,55,3.5,3.5,89,0.00,-SN,,0.09,23.0,WeatherDisplay:10.37,2013-03-11 15:44:00,
2013-03-11 10:49:00,27.5,24.7,29.77,NE,38,1.1,1.1,89,0.00,-SN,,0.09,23.0,WeatherDisplay:10.37,2013-03-11 15:49:00,
2013-03-11 10:54:00,27.6,24.5,29.77,ENE,75,2.3,2.3,88,0.00,-SN,,0.09,28.0,WeatherDisplay:10.37,2013-03-11 15:54:00,
2013-03-11 10:59:00,27.6,24.5,29.77,North,5,3.5,3.5,88,0.00,-SN,,0.09,25.0,WeatherDisplay:10.37,2013-03-11 15:59:00,
2013-03-11 11:04:00,27.6,24.8,29.77,NNE,15,3.5,3.5,89,0.00,-SN,,0.09,25.0,WeatherDisplay:10.37,2013-03-11 16:04:00,
2013-03-11 11:09:00,27.7,24.9,29.77,ENE,74,3.0,3.0,89,0.00,-SN,,0.09,25.0,WeatherDisplay:10.37,2013-03-11 16:09:00,
2013-03-11 11:14:00,27.6,24.5,29.77,NNE,26,3.5,3.5,88,0.00,-SN,,0.09,28.0,WeatherDisplay:10.37,2013-03-11 16:14:00,
2013-03-11 11:19:00,27.6,24.5,29.77,NE,40,2.3,2.3,88,0.00,-SN,,0.09,33.0,WeatherDisplay:10.37,2013-03-11 16:19:00,
2013-03-11 11:24:00,27.5,24.4,29.77,NNE,32,4.6,4.6,88,0.00,-SN,,0.09,37.0,WeatherDisplay:10.37,2013-03-11 16:24:00,
2013-03-11 11:29:00,27.5,24.4,29.77,NE,39,3.5,3.5,88,0.00,-SN,,0.09,42.0,WeatherDisplay:10.37,2013-03-11 16:29:00,
2013-03-11 11:34:00,27.5,24.4,29.77,ENE,61,2.3,2.3,88,0.00,-SN,,0.09,39.0,WeatherDisplay:10.37,2013-03-11 16:34:00,
2013-03-11 11:39:00,27.5,24.4,29.76,NNE,32,2.3,2.3,88,0.00,-SN,,0.09,37.0,WeatherDisplay:10.37,2013-03-11 16:39:00,
2013-03-11 11:44:00,27.5,24.4,29.76,ENE,69,1.1,1.1,88,0.00,-SN,,0.09,39.0,WeatherDisplay:10.37,2013-03-11 16:44:00,
2013-03-11 11:49:00,27.5,24.4,29.76,NNE,26,1.1,1.1,88,0.00,-SN,,0.09,40.0,WeatherDisplay:10.37,2013-03-11 16:49:00,
2013-03-11 11:54:00,27.5,24.4,29.75,North,355,2.3,2.3,88,0.00,-SN,,0.09,42.0,WeatherDisplay:10.37,2013-03-11 16:54:00,
2013-03-11 11:59:00,27.6,24.5,29.75,North,9,4.0,4.0,88,0.00,-SN,,0.09,40.0,WeatherDisplay:10.37,2013-03-11 16:59:00,
2013-03-11 12:04:00,27.6,24.5,29.75,North,5,2.3,2.3,88,0.00,-SN,,0.09,40.0,WeatherDisplay:10.37,2013-03-11 17:04:00,
2013-03-11 12:10:00,27.6,24.5,29.75,North,360,4.0,4.0,88,0.00,-SN,,0.09,40.0,WeatherDisplay:10.37,2013-03-11 17:10:00,
2013-03-11 12:15:00,27.6,24.2,29.75,NNE,28,3.5,3.5,87,0.00,-SN,,0.09,42.0,WeatherDisplay:10.37,2013-03-11 17:15:00,
2013-03-11 12:20:00,27.6,24.2,29.75,NE,40,2.0,2.0,87,0.00,OVC,,0.09,40.0,WeatherDisplay:10.37,2013-03-11 17:20:00,
2013-03-11 12:25:00,27.5,24.1,29.75,North,360,4.6,4.6,87,0.00,OVC,,0.09,44.0,WeatherDisplay:10.37,2013-03-11 17:25:00,
2013-03-11 12:30:00,27.5,24.1,29.75,NNE,22,1.1,1.1,87,0.00,OVC,,0.09,44.0,WeatherDisplay:10.37,2013-03-11 17:30:00,
2013-03-11 12:35:00,27.5,23.9,29.75,ENE,67,3.0,3.0,86,0.00,OVC,,0.09,46.0,WeatherDisplay:10.37,2013-03-11 17:35:00,
2013-03-11 12:40:00,27.5,24.1,29.75,East,81,3.5,3.5,87,0.00,OVC,,0.09,44.0,WeatherDisplay:10.37,2013-03-11 17:40:00,
2013-03-11 12:45:00,27.6,24.0,29.75,ENE,73,2.3,2.3,86,0.00,OVC,,0.09,51.0,WeatherDisplay:10.37,2013-03-11 17:45:00,
2013-03-11 12:50:00,27.6,24.0,29.75,NNE,20,1.1,1.1,86,0.00,OVC,,0.09,42.0,WeatherDisplay:10.37,2013-03-11 17:50:00,
2013-03-11 12:55:00,27.6,24.0,29.75,NNE,20,4.6,4.6,86,0.00,OVC,,0.09,47.0,WeatherDisplay:10.37,2013-03-11 17:55:00,
2013-03-11 13:00:00,27.5,23.6,29.75,NNE,32,6.0,6.0,85,0.00,OVC,,0.09,44.0,WeatherDisplay:10.37,2013-03-11 18:00:00,
2013-03-11 13:05:00,27.3,23.7,29.75,NNE,28,3.5,3.5,86,0.00,OVC,,0.09,42.0,WeatherDisplay:10.37,2013-03-11 18:05:00,
2013-03-11 13:10:00,27.4,23.8,29.74,NNE,19,3.5,3.5,86,0.00,OVC,,0.09,46.0,WeatherDisplay:10.37,2013-03-11 18:10:00,
2013-03-11 13:15:00,27.3,23.4,29.74,NE,36,5.0,5.0,85,0.00,OVC,,0.09,53.0,WeatherDisplay:10.37,2013-03-11 18:15:00,
2013-03-11 13:20:00,27.3,23.4,29.74,NNE,24,3.5,3.5,85,0.00,OVC,,0.09,70.0,WeatherDisplay:10.37,2013-03-11 18:20:00,
2013-03-11 13:25:00,27.4,23.5,29.74,NE,46,3.5,3.5,85,0.00,OVC,,0.09,42.0,WeatherDisplay:10.37,2013-03-11 18:25:00,
2013-03-11 13:30:00,27.3,23.4,29.74,NE,38,3.5,3.5,85,0.00,OVC,,0.09,33.0,WeatherDisplay:10.37,2013-03-11 18:30:00,
2013-03-11 13:35:00,27.2,23.3,29.74,NNW,336,3.5,3.5,85,0.00,OVC,,0.09,32.0,WeatherDisplay:10.37,2013-03-11 18:35:00,
2013-03-11 13:40:00,26.7,22.8,29.74,NNE,26,9.2,9.2,85,0.00,OVC,,0.09,32.0,WeatherDisplay:10.37,2013-03-11 18:40:00,
2013-03-11 13:45:00,26.4,22.8,29.74,East,80,4.6,4.6,86,0.00,OVC,,0.09,35.0,WeatherDisplay:10.37,2013-03-11 18:45:00,
2013-03-11 13:50:00,26.2,22.6,29.74,North,5,3.5,3.5,86,0.00,OVC,,0.09,35.0,WeatherDisplay:10.37,2013-03-11 18:50:00,
2013-03-11 13:55:00,26.1,22.5,29.74,ENE,70,6.9,6.9,86,0.00,OVC,,0.09,37.0,WeatherDisplay:10.37,2013-03-11 18:55:00,
2013-03-11 14:00:00,26.1,22.5,29.74,North,11,2.3,2.3,86,0.00,OVC,,0.09,32.0,WeatherDisplay:10.37,2013-03-11 19:00:00,
2013-03-11 14:05:00,26.1,22.5,29.74,NNE,22,4.6,4.6,86,0.00,-SN,,0.09,35.0,WeatherDisplay:10.37,2013-03-11 19:05:00,
2013-03-11 14:10:00,26.0,22.4,29.74,WNW,286,3.5,3.5,86,0.00,-SN,,0.09,33.0,WeatherDisplay:10.37,2013-03-11 19:10:00,
2013-03-11 14:15:00,25.9,22.6,29.74,ENE,72,3.5,3.5,87,0.00,-SN,,0.09,33.0,WeatherDisplay:10.37,2013-03-11 19:15:00,
2013-03-11 14:20:00,25.9,22.6,29.74,NNE,29,0.0,0.4,87,0.00,-SN,,0.09,35.0,WeatherDisplay:10.37,2013-03-11 19:20:00,
2013-03-11 14:25:00,26.0,22.4,29.74,North,360,2.3,2.3,86,0.00,-SN,,0.09,44.0,WeatherDisplay:10.37,2013-03-11 19:25:00,
2013-03-11 14:30:00,26.0,22.4,29.74,ESE,111,2.3,2.3,86,0.00,-SN,,0.09,33.0,WeatherDisplay:10.37,2013-03-11 19:30:00,
2013-03-11 14:35:00,26.1,22.5,29.74,NE,44,1.1,1.1,86,0.00,-SN,,0.09,33.0,WeatherDisplay:10.37,2013-03-11 19:35:00,
2013-03-11 14:40:00,26.2,22.9,29.74,NNE,19,3.5,3.5,87,0.00,-SN,,0.09,33.0,WeatherDisplay:10.37,2013-03-11 19:40:00,
2013-03-11 14:45:00,26.1,22.2,29.74,NNE,14,4.6,4.6,85,0.00,-SN,,0.09,33.0,WeatherDisplay:10.37,2013-03-11 19:45:00,
2013-03-11 14:50:00,25.9,22.0,29.74,NE,34,4.6,4.6,85,0.00,-SN,,0.09,42.0,WeatherDisplay:10.37,2013-03-11 19:50:00,
2013-03-11 14:55:00,25.8,21.9,29.74,ENE,69,4.6,4.6,85,0.00,-SN,,0.09,30.0,WeatherDisplay:10.37,2013-03-11 19:55:00,
2013-03-11 15:00:00,25.6,21.7,29.74,ENE,61,2.3,2.3,85,0.00,-SN,,0.09,33.0,WeatherDisplay:10.37,2013-03-11 20:00:00,
2013-03-11 15:05:00,25.6,21.7,29.74,NNE,28,2.3,2.3,85,0.00,OVC,,0.09,33.0,WeatherDisplay:10.37,2013-03-11 20:05:00,
2013-03-11 15:10:00,25.4,21.8,29.74,NNE,21,3.5,3.5,86,0.00,OVC,,0.09,33.0,WeatherDisplay:10.37,2013-03-11 20:10:00,
2013-03-11 15:15:00,25.4,21.8,29.75,NNE,19,3.5,3.5,86,0.00,OVC,,0.09,26.0,WeatherDisplay:10.37,2013-03-11 20:15:00,
2013-03-11 15:20:00,25.3,21.4,29.75,NNE,12,3.5,3.5,85,0.00,OVC,,0.09,25.0,WeatherDisplay:10.37,2013-03-11 20:20:00,
2013-03-11 15:25:00,25.3,21.4,29.74,NNE,32,4.6,4.6,85,0.00,OVC,,0.09,37.0,WeatherDisplay:10.37,2013-03-11 20:25:00,
2013-03-11 15:30:00,25.3,21.1,29.74,NNE,26,6.9,6.9,84,0.00,OVC,,0.09,26.0,WeatherDisplay:10.37,2013-03-11 20:30:00,
2013-03-11 15:35:00,25.2,21.0,29.74,NNE,29,2.3,2.3,84,0.00,OVC,,0.09,25.0,WeatherDisplay:10.37,2013-03-11 20:35:00,
2013-03-11 15:40:00,25.2,21.0,29.75,NE,56,5.8,5.8,84,0.00,OVC,,0.09,21.0,WeatherDisplay:10.37,2013-03-11 20:40:00,
2013-03-11 15:46:00,25.1,21.2,29.75,North,5,3.5,3.5,85,0.00,OVC,,0.09,19.0,WeatherDisplay:10.37,2013-03-11 20:46:00,
2013-03-11 15:51:00,25.2,21.3,29.75,North,5,0.0,0.0,85,0.00,OVC,,0.09,18.0,WeatherDisplay:10.37,2013-03-11 20:51:00,
2013-03-11 15:56:00,25.2,21.6,29.75,SW,214,4.6,4.6,86,0.00,OVC,,0.09,28.0,WeatherDisplay:10.37,2013-03-11 20:56:00,
2013-03-11 16:01:00,25.2,21.0,29.75,NNE,30,4.6,4.6,84,0.00,OVC,,0.09,28.0,WeatherDisplay:10.37,2013-03-11 21:01:00,
2013-03-11 16:06:00,25.1,20.9,29.75,NE,42,2.3,2.3,84,0.00,OVC,,0.09,26.0,WeatherDisplay:10.37,2013-03-11 21:06:00,
2013-03-11 16:11:00,25.1,20.9,29.75,NE,45,1.1,1.1,84,0.00,OVC,,0.09,26.0,WeatherDisplay:10.37,2013-03-11 21:11:00,
2013-03-11 16:16:00,25.1,20.9,29.75,East,95,0.0,0.0,84,0.00,OVC,,0.09,25.0,WeatherDisplay:10.37,2013-03-11 21:16:00,
2013-03-11 16:21:00,25.3,21.1,29.75,ESE,103,3.5,3.5,84,0.00,OVC,,0.09,25.0,WeatherDisplay:10.37,2013-03-11 21:21:00,
2013-03-11 16:26:00,25.3,21.1,29.75,ENE,71,0.0,0.0,84,0.00,OVC,,0.09,30.0,WeatherDisplay:10.37,2013-03-11 21:26:00,
2013-03-11 16:31:00,25.4,21.2,29.75,NW,324,2.3,2.3,84,0.00,OVC,,0.09,42.0,WeatherDisplay:10.37,2013-03-11 21:31:00,
2013-03-11 16:36:00,25.5,21.1,29.74,NNE,24,0.0,0.0,83,0.00,OVC,,0.09,33.0,WeatherDisplay:10.37,2013-03-11 21:36:00,
2013-03-11 16:41:00,25.7,21.5,29.75,NNE,24,2.3,2.3,84,0.00,OVC,,0.09,32.0,WeatherDisplay:10.37,2013-03-11 21:41:00,
2013-03-11 16:47:00,25.5,21.1,29.75,NNE,17,5.0,5.0,83,0.00,OVC,,0.09,33.0,WeatherDisplay:10.37,2013-03-11 21:47:00,
2013-03-11 16:52:00,25.6,21.2,29.75,ENE,59,2.0,2.0,83,0.00,OVC,,0.09,42.0,WeatherDisplay:10.37,2013-03-11 21:52:00,
2013-03-11 16:57:00,25.7,21.5,29.75,NE,55,0.0,0.0,84,0.00,OVC,,0.09,35.0,WeatherDisplay:10.37,2013-03-11 21:57:00,
2013-03-11 17:02:00,25.8,21.3,29.75,ENE,62,2.3,2.3,83,0.00,OVC,,0.09,28.0,WeatherDisplay:10.37,2013-03-11 22:02:00,
2013-03-11 17:07:00,25.8,21.3,29.75,East,81,3.5,3.5,83,0.00,OVC,,0.09,32.0,WeatherDisplay:10.37,2013-03-11 22:07:00,
2013-03-11 17:12:00,25.7,21.3,29.75,NW,325,2.3,2.3,83,0.00,OVC,,0.09,28.0,WeatherDisplay:10.37,2013-03-11 22:12:00,
2013-03-11 17:17:00,25.7,21.0,29.75,NE,36,3.5,3.5,82,0.00,OVC,,0.09,28.0,WeatherDisplay:10.37,2013-03-11 22:17:00,
2013-03-11 17:22:00,25.8,21.1,29.75,NNW,340,1.1,1.1,82,0.00,OVC,,0.09,30.0,WeatherDisplay:10.37,2013-03-11 22:22:00,
2013-03-11 17:27:00,25.8,20.8,29.75,East,88,2.3,2.3,81,0.00,OVC,,0.09,25.0,WeatherDisplay:10.37,2013-03-11 22:27:00,
2013-03-11 17:32:00,25.9,20.9,29.75,NE,36,1.1,1.1,81,0.00,OVC,,0.09,19.0,WeatherDisplay:10.37,2013-03-11 22:32:00,
2013-03-11 17:37:00,25.8,20.8,29.75,NNE,24,3.5,3.5,81,0.00,OVC,,0.09,18.0,WeatherDisplay:10.37,2013-03-11 22:37:00,
2013-03-11 17:42:00,25.8,20.8,29.75,West,278,1.0,1.0,81,0.00,OVC,,0.09,18.0,WeatherDisplay:10.37,2013-03-11 22:42:00,
2013-03-11 17:47:00,25.7,21.0,29.75,NE,39,3.5,3.5,82,0.00,OVC,,0.09,18.0,WeatherDisplay:10.37,2013-03-11 22:47:00,
2013-03-11 17:52:00,25.6,20.9,29.75,NE,40,1.1,1.1,82,0.00,OVC,,0.09,14.0,WeatherDisplay:10.37,2013-03-11 22:52:00,
2013-03-11 17:57:00,25.6,20.6,29.75,North,355,2.3,0.0,81,0.00,OVC,,0.09,14.0,WeatherDisplay:10.37,2013-03-11 22:57:00,
2013-03-11 18:03:00,25.5,20.8,29.75,North,351,0.0,0.0,82,0.00,OVC,,0.09,16.0,WeatherDisplay:10.37,2013-03-11 23:03:00,
2013-03-11 18:08:00,25.6,20.9,29.75,North,360,3.5,3.5,82,0.00,OVC,,0.09,16.0,WeatherDisplay:10.37,2013-03-11 23:08:00,
2013-03-11 18:13:00,25.4,20.4,29.75,NNE,15,1.1,0.0,81,0.00,OVC,,0.09,16.0,WeatherDisplay:10.37,2013-03-11 23:13:00,
2013-03-11 18:18:00,25.4,20.7,29.75,NNE,17,1.1,1.1,82,0.00,OVC,,0.09,11.0,WeatherDisplay:10.37,2013-03-11 23:18:00,
2013-03-11 18:23:00,25.4,20.7,29.75,NE,52,1.1,1.1,82,0.00,OVC,,0.09,9.0,WeatherDisplay:10.37,2013-03-11 23:23:00,
2013-03-11 18:28:00,25.4,20.7,29.75,NW,315,1.1,1.1,82,0.00,OVC,,0.09,5.0,WeatherDisplay:10.37,2013-03-11 23:28:00,
2013-03-11 18:33:00,25.4,21.0,29.75,West,259,1.1,1.1,83,0.00,OVC,,0.09,7.0,WeatherDisplay:10.37,2013-03-11 23:33:00,
2013-03-11 18:38:00,25.3,20.9,29.75,WSW,237,0.0,0.0,83,0.00,OVC,,0.09,5.0,WeatherDisplay:10.37,2013-03-11 23:38:00,
2013-03-11 18:43:00,25.3,20.9,29.76,North,5,2.3,2.3,83,0.00,OVC,,0.09,0.0,WeatherDisplay:10.37,2013-03-11 23:43:00,
2013-03-11 18:48:00,25.3,20.9,29.76,North,5,0.0,0.0,83,0.00,OVC,,0.09,0.0,WeatherDisplay:10.37,2013-03-11 23:48:00,
2013-03-11 18:53:00,25.3,20.9,29.76,North,5,0.0,0.0,83,0.00,OVC,,0.09,0.0,WeatherDisplay:10.37,2013-03-11 23:53:00,
2013-03-11 18:58:00,25.3,20.9,29.76,North,5,0.0,0.0,83,0.00,OVC,,0.09,0.0,WeatherDisplay:10.37,2013-03-11 23:58:00,
2013-03-11 19:03:00,25.3,20.9,29.76,NNE,15,2.3,0.0,83,0.00,OVC,,0.09,0.0,WeatherDisplay:10.37,2013-03-12 00:03:00,
2013-03-11 19:08:00,25.2,20.5,29.76,NNE,21,0.0,0.0,82,0.00,OVC,,0.09,0.0,WeatherDisplay:10.37,2013-03-12 00:08:00,
2013-03-11 19:13:00,25.2,20.8,29.76,SSW,205,1.0,1.0,83,0.00,OVC,,0.09,0.0,WeatherDisplay:10.37,2013-03-12 00:13:00,
2013-03-11 19:18:00,25.2,20.8,29.76,WNW,300,0.0,0.0,83,0.00,OVC,,0.09,0.0,WeatherDisplay:10.37,2013-03-12 00:18:00,
2013-03-11 19:23:00,25.2,20.8,29.76,WNW,300,1.1,1.1,83,0.00,OVC,,0.09,0.0,WeatherDisplay:10.37,2013-03-12 00:23:00,
2013-03-11 19:28:00,25.2,20.8,29.76,WNW,300,0.0,0.0,83,0.00,OVC,,0.09,0.0,WeatherDisplay:10.37,2013-03-12 00:28:00,
2013-03-11 19:33:00,25.2,20.8,29.76,NW,323,1.1,0.0,83,0.00,OVC,,0.09,0.0,WeatherDisplay:10.37,2013-03-12 00:33:00,
2013-03-11 19:38:00,25.2,20.8,29.76,North,5,0.0,0.0,83,0.00,OVC,,0.09,0.0,WeatherDisplay:10.37,2013-03-12 00:38:00,
2013-03-11 19:43:00,25.2,20.8,29.77,North,5,0.0,0.0,83,0.00,OVC,,0.09,0.0,WeatherDisplay:10.37,2013-03-12 00:43:00,
2013-03-11 19:48:00,25.3,21.1,29.77,North,5,1.1,0.0,84,0.00,OVC,,0.09,0.0,WeatherDisplay:10.37,2013-03-12 00:48:00,
2013-03-11 19:53:00,25.3,20.9,29.76,North,9,1.1,1.1,83,0.00,OVC,,0.09,0.0,WeatherDisplay:10.37,2013-03-12 00:53:00,
2013-03-11 19:58:00,25.3,21.1,29.77,NNE,20,0.0,0.0,84,0.00,OVC,,0.09,0.0,WeatherDisplay:10.37,2013-03-12 00:58:00,
2013-03-11 20:03:00,25.3,21.1,29.77,NNE,20,0.0,0.0,84,0.00,OVC,,0.09,0.0,WeatherDisplay:10.37,2013-03-12 01:03:00,
2013-03-11 20:08:00,25.3,21.1,29.77,NNE,20,1.1,0.0,84,0.00,OVC,,0.09,0.0,WeatherDisplay:10.37,2013-03-12 01:08:00,
2013-03-11 20:13:00,25.4,21.2,29.76,NNE,20,0.0,0.0,84,0.00,OVC,,0.09,0.0,WeatherDisplay:10.37,2013-03-12 01:13:00,
2013-03-11 20:18:00,25.4,21.2,29.77,North,5,0.0,0.0,84,0.00,OVC,,0.09,0.0,WeatherDisplay:10.37,2013-03-12 01:18:00,
2013-03-11 20:23:00,25.4,21.0,29.77,North,11,1.1,1.1,83,0.00,OVC,,0.09,0.0,WeatherDisplay:10.37,2013-03-12 01:23:00,
2013-03-11 20:28:00,25.3,20.9,29.77,NNE,22,1.1,1.1,83,0.00,OVC,,0.09,0.0,WeatherDisplay:10.37,2013-03-12 01:28:00,
2013-03-11 20:33:00,25.2,20.8,29.77,NNE,15,2.0,2.0,83,0.00,OVC,,0.09,0.0,WeatherDisplay:10.37,2013-03-12 01:33:00,
2013-03-11 20:38:00,25.1,20.7,29.77,NE,42,1.1,1.1,83,0.00,OVC,,0.09,0.0,WeatherDisplay:10.37,2013-03-12 01:38:00,
2013-03-11 20:43:00,25.1,20.7,29.78,NNE,25,1.1,1.1,83,0.00,OVC,,0.09,0.0,WeatherDisplay:10.37,2013-03-12 01:43:00,
2013-03-11 20:48:00,25.1,20.9,29.78,NNE,25,0.0,0.0,84,0.00,OVC,,0.09,0.0,WeatherDisplay:10.37,2013-03-12 01:48:00,
2013-03-11 20:53:00,25.0,20.6,29.78,NW,317,2.3,0.0,83,0.00,OVC,,0.09,0.0,WeatherDisplay:10.37,2013-03-12 01:53:00,
2013-03-11 20:58:00,25.0,20.6,29.78,WNW,303,1.1,1.1,83,0.00,OVC,,0.09,0.0,WeatherDisplay:10.37,2013-03-12 01:58:00,
2013-03-11 21:03:00,24.9,20.8,29.78,West,267,0.0,0.3,84,0.00,-SN,,0.09,0.0,WeatherDisplay:10.37,2013-03-12 02:03:00,
2013-03-11 21:08:00,24.9,20.8,29.78,West,267,0.0,0.0,84,0.00,-SN,,0.09,0.0,WeatherDisplay:10.37,2013-03-12 02:08:00,
2013-03-11 21:13:00,24.9,20.8,29.78,West,267,0.0,0.0,84,0.00,-SN,,0.09,0.0,WeatherDisplay:10.37,2013-03-12 02:13:00,
2013-03-11 21:18:00,24.9,20.5,29.78,North,355,0.0,0.0,83,0.00,-SN,,0.09,0.0,WeatherDisplay:10.37,2013-03-12 02:18:00,
2013-03-11 21:23:00,24.8,20.4,29.78,NNW,347,1.1,0.0,83,0.00,-SN,,0.09,0.0,WeatherDisplay:10.37,2013-03-12 02:23:00,
2013-03-11 21:28:00,24.8,20.4,29.79,NNW,346,1.1,0.0,83,0.00,-SN,,0.09,0.0,WeatherDisplay:10.37,2013-03-12 02:28:00,
2013-03-11 21:33:00,24.9,20.5,29.79,NNW,336,2.3,2.3,83,0.00,-SN,,0.09,0.0,WeatherDisplay:10.37,2013-03-12 02:33:00,
2013-03-11 21:38:00,24.9,20.5,29.79,NNW,336,0.0,0.0,83,0.00,-SN,,0.09,0.0,WeatherDisplay:10.37,2013-03-12 02:38:00,
2013-03-11 21:43:00,24.8,20.1,29.79,NNW,333,0.0,0.0,82,0.00,-SN,,0.09,0.0,WeatherDisplay:10.37,2013-03-12 02:43:00,
2013-03-11 21:48:00,24.8,20.4,29.80,WNW,284,1.1,1.1,83,0.00,-SN,,0.09,0.0,WeatherDisplay:10.37,2013-03-12 02:48:00,
2013-03-11 21:53:00,24.7,20.0,29.80,West,279,2.3,2.3,82,0.00,-SN,,0.09,0.0,WeatherDisplay:10.37,2013-03-12 02:53:00,
2013-03-11 21:58:00,24.7,20.0,29.80,West,280,0.0,0.0,82,0.00,-SN,,0.09,0.0,WeatherDisplay:10.37,2013-03-12 02:58:00,
2013-03-11 22:04:00,24.6,19.9,29.80,WNW,286,1.1,0.0,82,0.00,OVC,,0.09,0.0,WeatherDisplay:10.37,2013-03-12 03:04:00,
2013-03-11 22:09:00,24.5,19.5,29.80,WNW,286,1.1,1.1,81,0.00,OVC,,0.09,0.0,WeatherDisplay:10.37,2013-03-12 03:09:00,
2013-03-11 22:14:00,24.4,19.4,29.80,NNW,336,2.3,2.3,81,0.00,OVC,,0.09,0.0,WeatherDisplay:10.37,2013-03-12 03:14:00,
2013-03-11 22:19:00,24.3,19.6,29.80,WNW,297,0.0,0.0,82,0.00,OVC,,0.09,0.0,WeatherDisplay:10.37,2013-03-12 03:19:00,
2013-03-11 22:24:00,24.3,19.3,29.80,North,5,1.1,1.1,81,0.00,OVC,,0.09,0.0,WeatherDisplay:10.37,2013-03-12 03:24:00,
2013-03-11 22:29:00,24.3,19.0,29.80,North,350,0.0,0.2,80,0.00,OVC,,0.09,0.0,WeatherDisplay:10.37,2013-03-12 03:29:00,
2013-03-11 22:34:00,24.3,19.0,29.80,WNW,292,1.1,0.0,80,0.00,OVC,,0.09,0.0,WeatherDisplay:10.37,2013-03-12 03:34:00,
2013-03-11 22:39:00,24.3,19.0,29.80,North,360,1.1,0.0,80,0.00,OVC,,0.09,0.0,WeatherDisplay:10.37,2013-03-12 03:39:00,
2013-03-11 22:44:00,24.3,19.0,29.80,West,279,0.0,0.0,80,0.00,OVC,,0.09,0.0,WeatherDisplay:10.37,2013-03-12 03:44:00,
2013-03-11 22:49:00,24.2,18.6,29.80,West,278,1.1,0.0,79,0.00,OVC,,0.09,0.0,WeatherDisplay:10.37,2013-03-12 03:49:00,
2013-03-11 22:54:00,24.1,19.1,29.80,WSW,252,0.0,0.0,81,0.00,OVC,,0.09,0.0,WeatherDisplay:10.37,2013-03-12 03:54:00,
2013-03-11 23:00:00,24.0,19.0,29.80,WSW,252,1.1,0.0,81,0.00,OVC,,0.09,0.0,WeatherDisplay:10.37,2013-03-12 04:00:00,
2013-03-11 23:05:00,23.9,18.9,29.80,WSW,252,0.0,0.1,81,0.00,OVC,,0.09,0.0,WeatherDisplay:10.37,2013-03-12 04:05:00,
2013-03-11 23:10:00,23.8,19.1,29.80,WSW,252,0.0,0.0,82,0.00,OVC,,0.09,0.0,WeatherDisplay:10.37,2013-03-12 04:10:00,
2013-03-11 23:15:00,23.8,19.1,29.80,West,259,1.1,1.1,82,0.00,OVC,,0.09,0.0,WeatherDisplay:10.37,2013-03-12 04:15:00,
2013-03-11 23:20:00,23.7,18.7,29.80,West,259,1.1,1.1,81,0.00,OVC,,0.09,0.0,WeatherDisplay:10.37,2013-03-12 04:20:00,
2013-03-11 23:25:00,23.7,19.0,29.80,West,262,1.1,1.1,82,0.00,OVC,,0.09,0.0,WeatherDisplay:10.37,2013-03-12 04:25:00,
2013-03-11 23:30:00,23.7,19.0,29.80,West,266,1.1,0.0,82,0.00,OVC,,0.09,0.0,WeatherDisplay:10.37,2013-03-12 04:30:00,
2013-03-11 23:35:00,23.7,19.0,29.80,West,266,0.0,0.0,82,0.00,OVC,,0.09,0.0,WeatherDisplay:10.37,2013-03-12 04:35:00,
2013-03-11 23:40:00,23.8,19.1,29.80,West,266,0.0,0.0,82,0.00,OVC,,0.09,0.0,WeatherDisplay:10.37,2013-03-12 04:40:00,
2013-03-11 23:45:00,23.8,19.4,29.80,West,266,2.3,2.3,83,0.00,OVC,,0.09,0.0,WeatherDisplay:10.37,2013-03-12 04:45:00,
2013-03-11 23:50:00,23.7,19.0,29.80,WSW,242,1.1,1.1,82,0.00,OVC,,0.09,0.0,WeatherDisplay:10.37,2013-03-12 04:50:00,
2013-03-11 23:55:00,23.6,19.2,29.80,West,260,0.0,0.2,83,0.00,OVC,,0.09,0.0,WeatherDisplay:10.37,2013-03-12 04:55:00,